WIII

Jakarta/Soekarno-Hatta International Airport

Airport
ICAO code
WIII
IATA Code
CGK
Summary
ICAO Region
APAC
ICAO Territory
Location

Tangerang, Banten

Serving
Jakarta
Elevation
32 ft
Coordinates
6° 7' 37" S , 106° 39' 15" E
KCC
Metar
WIII 122300Z 17005KT 3000 HZ FEW020 24/20 Q1010 NOSIG

The principal international airport serving the Jakarta region.

Climatology

Tropical Savanna climate (Köppen climate classification Aw) - monthly mean temperature above 18°C in every month of the year and a pronounced dry season.

Airport map

Aerial View

Airport accidents

SKYbrary Partners:

Safety knowledge contributed by: